Time,TemperatureF,DewpointF,PressureIn,WindDirection,WindDirectionDegrees,WindSpeedMPH,WindSpeedGustMPH,Humidity,HourlyPrecipIn,Conditions,Clouds,dailyrainin,SoftwareType,DateUTC
2013-11-27 00:00:00,55.2,42.3,29.88,East,90,0.8,0.8,62,0.00,,,0.00,WUHU216HW,2013-11-27 08:00:00,
2013-11-27 00:05:00,55.2,42.3,29.88,ESE,113,0.0,0.8,62,0.00,,,0.00,WUHU216HW,2013-11-27 08:05:00,
2013-11-27 00:10:00,55.2,42.3,29.88,East,90,2.0,2.0,62,0.00,,,0.00,WUHU216HW,2013-11-27 08:10:00,
2013-11-27 00:15:00,55.2,42.3,29.88,ESE,113,2.2,2.2,62,0.00,,,0.00,WUHU216HW,2013-11-27 08:15:00,
2013-11-27 00:20:00,55.0,42.2,29.88,ENE,68,0.0,5.5,62,0.00,,,0.00,WUHU216HW,2013-11-27 08:20:00,
2013-11-27 00:25:00,55.0,42.6,29.88,ESE,113,3.5,5.5,63,0.00,,,0.00,WUHU216HW,2013-11-27 08:25:00,
2013-11-27 00:30:00,55.0,42.6,29.88,ESE,113,2.6,4.2,63,0.00,,,0.00,WUHU216HW,2013-11-27 08:30:00,
2013-11-27 00:35:00,55.0,42.6,29.87,East,90,0.0,4.2,63,0.00,,,0.00,WUHU216HW,2013-11-27 08:35:00,
2013-11-27 00:40:00,54.8,42.4,29.87,NE,45,0.0,2.6,63,0.00,,,0.00,WUHU216HW,2013-11-27 08:40:00,
2013-11-27 00:46:00,54.8,42.4,29.87,ESE,113,0.0,0.6,63,0.00,,,0.00,WUHU216HW,2013-11-27 08:46:00,
2013-11-27 00:51:00,54.8,42.4,29.87,East,90,1.5,1.5,63,0.00,,,0.00,WUHU216HW,2013-11-27 08:51:00,
2013-11-27 00:56:00,54.6,42.2,29.87,ESE,113,2.4,8.7,63,0.00,,,0.00,WUHU216HW,2013-11-27 08:56:00,
2013-11-27 01:01:00,54.6,42.2,29.87,ESE,113,0.0,8.7,63,0.00,,,0.00,WUHU216HW,2013-11-27 09:01:00,
2013-11-27 01:06:00,54.5,42.1,29.86,East,90,0.0,0.0,63,0.00,,,0.00,WUHU216HW,2013-11-27 09:06:00,
2013-11-27 01:11:00,54.5,42.1,29.86,ESE,113,2.9,2.9,63,0.00,,,0.00,WUHU216HW,2013-11-27 09:11:00,
2013-11-27 01:16:00,54.3,41.9,29.86,NNE,23,0.0,2.9,63,0.00,,,0.00,WUHU216HW,2013-11-27 09:16:00,
2013-11-27 01:21:00,54.3,41.9,29.86,ESE,113,4.6,4.6,63,0.00,,,0.00,WUHU216HW,2013-11-27 09:21:00,
2013-11-27 01:26:00,54.3,41.9,29.86,ESE,113,1.1,4.6,63,0.00,,,0.00,WUHU216HW,2013-11-27 09:26:00,
2013-11-27 01:31:00,54.3,42.3,29.86,ENE,68,0.0,4.6,64,0.00,,,0.00,WUHU216HW,2013-11-27 09:31:00,
2013-11-27 01:36:00,54.1,42.1,29.86,NNE,23,4.4,4.4,64,0.00,,,0.00,WUHU216HW,2013-11-27 09:36:00,
2013-11-27 01:41:00,54.1,42.1,29.86,ESE,113,4.4,4.4,64,0.00,,,0.00,WUHU216HW,2013-11-27 09:41:00,
2013-11-27 01:46:00,53.9,42.0,29.86,NE,45,1.1,4.4,64,0.00,,,0.00,WUHU216HW,2013-11-27 09:46:00,
2013-11-27 01:51:00,53.9,42.0,29.85,ENE,68,0.0,1.1,64,0.00,,,0.00,WUHU216HW,2013-11-27 09:51:00,
2013-11-27 01:57:00,53.9,42.0,29.86,East,90,0.0,3.5,64,0.00,,,0.00,WUHU216HW,2013-11-27 09:57:00,
2013-11-27 02:02:00,53.9,42.0,29.85,East,90,0.0,3.5,64,0.00,,,0.00,WUHU216HW,2013-11-27 10:02:00,
2013-11-27 02:07:00,53.9,42.0,29.85,SE,135,2.4,2.4,64,0.00,,,0.00,WUHU216HW,2013-11-27 10:07:00,
2013-11-27 02:12:00,53.9,42.0,29.85,ESE,113,0.0,5.5,64,0.00,,,0.00,WUHU216HW,2013-11-27 10:12:00,
2013-11-27 02:17:00,53.7,41.8,29.85,East,90,0.8,5.5,64,0.00,,,0.00,WUHU216HW,2013-11-27 10:17:00,
2013-11-27 02:22:00,53.7,41.8,29.85,ENE,68,1.7,1.7,64,0.00,,,0.00,WUHU216HW,2013-11-27 10:22:00,
2013-11-27 02:27:00,53.7,41.8,29.85,East,90,0.0,1.7,64,0.00,,,0.00,WUHU216HW,2013-11-27 10:27:00,
2013-11-27 02:32:00,53.7,41.8,29.85,ENE,68,0.0,0.0,64,0.00,,,0.00,WUHU216HW,2013-11-27 10:32:00,
2013-11-27 02:37:00,53.7,41.8,29.85,SE,135,0.0,0.0,64,0.00,,,0.00,WUHU216HW,2013-11-27 10:37:00,
2013-11-27 02:43:00,53.7,41.8,29.85,SE,135,0.0,0.0,64,0.00,,,0.00,WUHU216HW,2013-11-27 10:43:00,
2013-11-27 02:48:00,53.7,41.8,29.85,ESE,113,0.0,0.0,64,0.00,,,0.00,WUHU216HW,2013-11-27 10:48:00,
2013-11-27 02:53:00,53.7,41.8,29.84,SSE,158,0.0,0.0,64,0.00,,,0.00,WUHU216HW,2013-11-27 10:53:00,
2013-11-27 02:58:00,53.7,41.8,29.83,ESE,113,0.0,4.4,64,0.00,,,0.00,WUHU216HW,2013-11-27 10:58:00,
2013-11-27 03:03:00,53.6,41.6,29.83,SE,135,0.0,4.4,64,0.00,,,0.00,WUHU216HW,2013-11-27 11:03:00,
2013-11-27 03:08:00,53.6,41.6,29.83,ESE,113,7.1,7.1,64,0.00,,,0.00,WUHU216HW,2013-11-27 11:08:00,
2013-11-27 03:13:00,53.4,41.5,29.83,East,90,0.0,7.1,64,0.00,,,0.00,WUHU216HW,2013-11-27 11:13:00,
2013-11-27 03:18:00,53.4,41.5,29.83,SE,135,4.0,7.1,64,0.00,,,0.00,WUHU216HW,2013-11-27 11:18:00,
2013-11-27 03:23:00,53.2,41.3,29.83,ESE,113,0.0,4.2,64,0.00,,,0.00,WUHU216HW,2013-11-27 11:23:00,
2013-11-27 03:28:00,53.2,41.3,29.83,North,0,0.0,0.0,64,0.00,,,0.00,WUHU216HW,2013-11-27 11:28:00,
2013-11-27 03:33:00,53.2,41.3,29.83,SSE,158,0.0,0.0,64,0.00,,,0.00,WUHU216HW,2013-11-27 11:33:00,
2013-11-27 03:38:00,53.2,41.7,29.83,South,180,0.0,0.0,65,0.00,,,0.00,WUHU216HW,2013-11-27 11:38:00,
2013-11-27 03:44:00,53.2,41.7,29.82,ENE,68,0.0,0.0,65,0.00,,,0.00,WUHU216HW,2013-11-27 11:44:00,
2013-11-27 03:49:00,53.0,41.5,29.82,ENE,68,0.0,0.0,65,0.00,,,0.00,WUHU216HW,2013-11-27 11:49:00,
2013-11-27 03:54:00,52.8,41.3,29.82,East,90,0.0,0.0,65,0.00,,,0.00,WUHU216HW,2013-11-27 11:54:00,
2013-11-27 03:59:00,52.8,41.3,29.82,East,90,2.9,2.9,65,0.00,,,0.00,WUHU216HW,2013-11-27 11:59:00,
2013-11-27 04:04:00,52.8,41.3,29.81,East,90,0.0,2.9,65,0.00,,,0.00,WUHU216HW,2013-11-27 12:04:00,
2013-11-27 04:09:00,52.8,41.3,29.81,ESE,113,0.0,0.0,65,0.00,,,0.00,WUHU216HW,2013-11-27 12:09:00,
2013-11-27 04:14:00,52.7,41.2,29.81,East,90,0.0,0.8,65,0.00,,,0.00,WUHU216HW,2013-11-27 12:14:00,
2013-11-27 04:19:00,52.8,41.3,29.81,SSE,158,0.0,0.8,65,0.00,,,0.00,WUHU216HW,2013-11-27 12:19:00,
2013-11-27 04:24:00,52.7,41.2,29.81,SSE,158,0.0,0.0,65,0.00,,,0.00,WUHU216HW,2013-11-27 12:24:00,
2013-11-27 04:29:00,52.7,41.2,29.81,SSE,158,0.0,0.0,65,0.00,,,0.00,WUHU216HW,2013-11-27 12:29:00,
2013-11-27 04:34:00,52.7,41.2,29.80,SSE,158,0.0,0.0,65,0.00,,,0.00,WUHU216HW,2013-11-27 12:34:00,
2013-11-27 04:39:00,52.7,41.6,29.80,SSE,158,0.0,0.0,66,0.00,,,0.00,WUHU216HW,2013-11-27 12:39:00,
2013-11-27 04:45:00,52.7,41.6,29.81,SSW,203,2.2,2.2,66,0.00,,,0.00,WUHU216HW,2013-11-27 12:45:00,
2013-11-27 04:50:00,52.5,41.4,29.80,SSW,203,0.0,2.2,66,0.00,,,0.00,WUHU216HW,2013-11-27 12:50:00,
2013-11-27 04:55:00,52.5,41.4,29.81,SSW,203,0.0,2.2,66,0.00,,,0.00,WUHU216HW,2013-11-27 12:55:00,
2013-11-27 05:00:00,52.5,41.4,29.80,SSW,203,0.0,0.0,66,0.00,,,0.00,WUHU216HW,2013-11-27 13:00:00,
2013-11-27 05:05:00,52.5,41.4,29.80,WSW,248,0.0,0.0,66,0.00,,,0.00,WUHU216HW,2013-11-27 13:05:00,
2013-11-27 05:10:00,52.5,41.4,29.80,WSW,248,0.0,0.0,66,0.00,,,0.00,WUHU216HW,2013-11-27 13:10:00,
2013-11-27 05:15:00,52.3,41.2,29.80,South,180,0.0,3.8,66,0.00,,,0.00,WUHU216HW,2013-11-27 13:15:00,
2013-11-27 05:20:00,52.3,41.2,29.80,West,270,2.4,3.8,66,0.00,,,0.00,WUHU216HW,2013-11-27 13:20:00,
2013-11-27 05:25:00,52.3,41.2,29.80,SE,135,0.0,2.4,66,0.00,,,0.00,WUHU216HW,2013-11-27 13:25:00,
2013-11-27 05:30:00,52.3,41.2,29.80,ESE,113,0.0,0.0,66,0.00,,,0.00,WUHU216HW,2013-11-27 13:30:00,
2013-11-27 05:35:00,52.3,41.6,29.80,SE,135,0.0,0.0,67,0.00,,,0.00,WUHU216HW,2013-11-27 13:35:00,
2013-11-27 05:40:00,52.3,41.6,29.81,NW,315,0.0,0.0,67,0.00,,,0.00,WUHU216HW,2013-11-27 13:40:00,
2013-11-27 05:46:00,52.1,41.5,29.80,NNE,23,0.0,0.0,67,0.00,,,0.00,WUHU216HW,2013-11-27 13:46:00,
2013-11-27 05:51:00,52.1,41.5,29.80,NNE,23,0.0,0.0,67,0.00,,,0.00,WUHU216HW,2013-11-27 13:51:00,
2013-11-27 05:56:00,52.1,41.5,29.80,North,0,0.0,0.0,67,0.00,,,0.00,WUHU216HW,2013-11-27 13:56:00,
2013-11-27 06:01:00,51.9,41.3,29.81,North,0,0.0,0.0,67,0.00,,,0.00,WUHU216HW,2013-11-27 14:01:00,
2013-11-27 06:06:00,51.9,41.3,29.80,North,0,0.0,0.0,67,0.00,,,0.00,WUHU216HW,2013-11-27 14:06:00,
2013-11-27 06:11:00,51.9,40.9,29.80,North,0,0.0,0.0,66,0.00,,,0.00,WUHU216HW,2013-11-27 14:11:00,
2013-11-27 06:16:00,51.6,40.7,29.80,North,0,0.0,0.0,66,0.00,,,0.00,WUHU216HW,2013-11-27 14:16:00,
2013-11-27 06:21:00,51.6,40.6,29.80,North,0,0.0,0.0,66,0.00,,,0.00,WUHU216HW,2013-11-27 14:21:00,
2013-11-27 06:26:00,51.6,41.0,29.80,North,0,0.0,0.0,67,0.00,,,0.00,WUHU216HW,2013-11-27 14:26:00,
2013-11-27 06:31:00,51.4,40.8,29.81,North,0,0.0,0.0,67,0.00,,,0.00,WUHU216HW,2013-11-27 14:31:00,
2013-11-27 06:36:00,51.4,40.8,29.81,North,0,0.0,0.0,67,0.00,,,0.00,WUHU216HW,2013-11-27 14:36:00,
2013-11-27 06:41:00,51.2,40.6,29.81,NNE,23,0.0,0.0,67,0.00,,,0.00,WUHU216HW,2013-11-27 14:41:00,
2013-11-27 06:46:00,51.0,40.8,29.81,SE,135,0.0,1.5,68,0.00,,,0.00,WUHU216HW,2013-11-27 14:46:00,
2013-11-27 06:52:00,51.0,40.8,29.80,SSE,158,0.0,1.5,68,0.00,,,0.00,WUHU216HW,2013-11-27 14:52:00,
2013-11-27 06:57:00,51.0,40.8,29.80,SSE,158,0.0,0.0,68,0.00,,,0.00,WUHU216HW,2013-11-27 14:57:00,
2013-11-27 07:02:00,51.0,40.8,29.80,SW,225,0.0,0.0,68,0.00,,,0.00,WUHU216HW,2013-11-27 15:02:00,
2013-11-27 07:07:00,51.0,41.3,29.80,East,90,0.0,0.0,69,0.00,,,0.00,WUHU216HW,2013-11-27 15:07:00,
2013-11-27 07:12:00,51.0,41.3,29.80,East,90,0.0,1.7,69,0.00,,,0.00,WUHU216HW,2013-11-27 15:12:00,
2013-11-27 07:17:00,51.0,41.3,29.79,SE,135,4.6,4.6,69,0.00,,,0.00,WUHU216HW,2013-11-27 15:17:00,
2013-11-27 07:22:00,51.2,41.0,29.79,East,90,0.8,4.6,68,0.00,,,0.00,WUHU216HW,2013-11-27 15:22:00,
2013-11-27 07:27:00,51.2,41.0,29.79,East,90,2.2,4.6,68,0.00,,,0.00,WUHU216HW,2013-11-27 15:27:00,
2013-11-27 07:32:00,51.2,41.0,29.79,NNE,23,4.6,4.6,68,0.00,,,0.00,WUHU216HW,2013-11-27 15:32:00,
2013-11-27 07:37:00,51.4,41.2,29.79,ENE,68,4.6,6.9,68,0.00,,,0.00,WUHU216HW,2013-11-27 15:37:00,
2013-11-27 07:42:00,51.4,41.2,29.80,ESE,113,1.7,6.9,68,0.00,,,0.00,WUHU216HW,2013-11-27 15:42:00,
2013-11-27 07:47:00,51.6,41.0,29.79,NNE,23,0.0,2.9,67,0.00,,,0.00,WUHU216HW,2013-11-27 15:47:00,
2013-11-27 07:52:00,51.6,41.0,29.79,East,90,0.0,1.7,67,0.00,,,0.00,WUHU216HW,2013-11-27 15:52:00,
2013-11-27 07:58:00,51.6,41.0,29.79,ENE,68,0.0,0.0,67,0.00,,,0.00,WUHU216HW,2013-11-27 15:58:00,
2013-11-27 08:03:00,51.6,41.0,29.79,East,90,3.3,11.8,67,0.00,,,0.00,WUHU216HW,2013-11-27 16:03:00,
2013-11-27 08:08:00,51.6,41.0,29.79,East,90,2.4,11.8,67,0.00,,,0.00,WUHU216HW,2013-11-27 16:08:00,
2013-11-27 08:13:00,51.8,41.1,29.79,ESE,113,7.6,7.6,67,0.00,,,0.00,WUHU216HW,2013-11-27 16:13:00,
2013-11-27 08:18:00,51.8,41.1,29.79,ESE,113,3.3,7.6,67,0.00,,,0.00,WUHU216HW,2013-11-27 16:18:00,
2013-11-27 08:23:00,51.9,40.9,29.80,East,90,0.0,7.6,66,0.00,,,0.00,WUHU216HW,2013-11-27 16:23:00,
2013-11-27 08:28:00,52.1,41.5,29.80,ENE,68,5.3,5.3,67,0.00,,,0.00,WUHU216HW,2013-11-27 16:28:00,
2013-11-27 08:33:00,52.3,41.2,29.79,East,90,5.5,7.6,66,0.00,,,0.00,WUHU216HW,2013-11-27 16:33:00,
2013-11-27 08:38:00,52.5,41.4,29.80,ENE,68,3.5,7.6,66,0.00,,,0.00,WUHU216HW,2013-11-27 16:38:00,
2013-11-27 08:43:00,52.8,41.7,29.80,East,90,0.0,5.1,66,0.00,,,0.00,WUHU216HW,2013-11-27 16:43:00,
2013-11-27 08:48:00,53.2,41.7,29.79,SE,135,5.3,5.3,65,0.00,,,0.00,WUHU216HW,2013-11-27 16:48:00,
2013-11-27 08:53:00,53.4,41.5,29.79,East,90,1.7,5.3,64,0.00,,,0.00,WUHU216HW,2013-11-27 16:53:00,
2013-11-27 08:58:00,53.4,41.5,29.79,NNE,23,0.0,5.3,64,0.00,,,0.00,WUHU216HW,2013-11-27 16:58:00,
2013-11-27 09:04:00,53.7,41.4,29.80,ESE,113,2.4,4.9,63,0.00,,,0.00,WUHU216HW,2013-11-27 17:04:00,
2013-11-27 09:09:00,53.9,41.6,29.79,East,90,1.1,4.6,63,0.00,,,0.00,WUHU216HW,2013-11-27 17:09:00,
2013-11-27 09:14:00,54.1,41.7,29.79,ESE,113,8.0,8.0,63,0.00,,,0.00,WUHU216HW,2013-11-27 17:14:00,
2013-11-27 09:19:00,54.5,41.7,29.79,ESE,113,1.5,8.0,62,0.00,,,0.00,WUHU216HW,2013-11-27 17:19:00,
2013-11-27 09:24:00,54.6,41.8,29.79,SE,135,1.5,6.7,62,0.00,,,0.00,WUHU216HW,2013-11-27 17:24:00,
2013-11-27 09:29:00,55.0,41.7,29.80,East,90,0.2,5.8,61,0.00,,,0.00,WUHU216HW,2013-11-27 17:29:00,
2013-11-27 09:34:00,55.2,41.9,29.80,NE,45,0.0,5.8,61,0.00,,,0.00,WUHU216HW,2013-11-27 17:34:00,
2013-11-27 09:39:00,55.4,42.1,29.79,ENE,68,4.4,4.4,61,0.00,,,0.00,WUHU216HW,2013-11-27 17:39:00,
2013-11-27 09:44:00,55.5,41.9,29.80,ENE,68,4.2,4.4,60,0.00,,,0.00,WUHU216HW,2013-11-27 17:44:00,
2013-11-27 09:49:00,55.9,42.2,29.79,East,90,6.2,10.7,60,0.00,,,0.00,WUHU216HW,2013-11-27 17:49:00,
2013-11-27 09:54:00,55.9,41.7,29.79,East,90,3.1,10.7,59,0.00,,,0.00,WUHU216HW,2013-11-27 17:54:00,
2013-11-27 09:59:00,56.3,42.1,29.79,ESE,113,0.0,4.6,59,0.00,,,0.00,WUHU216HW,2013-11-27 17:59:00,
2013-11-27 10:04:00,56.6,42.5,29.79,ESE,113,0.0,4.6,59,0.00,,,0.00,WUHU216HW,2013-11-27 18:04:00,
2013-11-27 10:09:00,57.0,42.4,29.79,ENE,68,0.0,0.6,58,0.00,,,0.00,WUHU216HW,2013-11-27 18:09:00,
2013-11-27 10:15:00,57.0,42.4,29.79,NE,45,0.0,1.5,58,0.00,,,0.00,WUHU216HW,2013-11-27 18:15:00,
2013-11-27 10:20:00,57.3,42.7,29.79,ENE,68,0.0,1.5,58,0.00,,,0.00,WUHU216HW,2013-11-27 18:20:00,
2013-11-27 10:25:00,57.5,42.9,29.79,ENE,68,0.0,0.0,58,0.00,,,0.00,WUHU216HW,2013-11-27 18:25:00,
2013-11-27 10:30:00,57.9,42.7,29.79,ENE,68,6.0,6.0,57,0.00,,,0.00,WUHU216HW,2013-11-27 18:30:00,
2013-11-27 10:35:00,58.1,42.9,29.78,ESE,113,0.0,6.0,57,0.00,,,0.00,WUHU216HW,2013-11-27 18:35:00,
2013-11-27 10:40:00,58.6,43.4,29.78,East,90,0.0,6.0,57,0.00,,,0.00,WUHU216HW,2013-11-27 18:40:00,
2013-11-27 10:45:00,58.6,43.4,29.78,NE,45,0.0,0.6,57,0.00,,,0.00,WUHU216HW,2013-11-27 18:45:00,
2013-11-27 10:50:00,58.8,43.1,29.78,SE,135,0.0,0.6,56,0.00,,,0.00,WUHU216HW,2013-11-27 18:50:00,
2013-11-27 10:55:00,58.8,43.1,29.78,ENE,68,5.3,5.3,56,0.00,,,0.00,WUHU216HW,2013-11-27 18:55:00,
2013-11-27 10:57:00,59.0,43.1,29.77,SE,135,2.2,5.3,56,0.00,,,0.00,WUHU216HW,2013-11-27 18:57:00,
2013-11-27 11:02:00,59.3,43.1,29.77,East,90,0.0,5.3,55,0.00,,,0.00,WUHU216HW,2013-11-27 19:02:00,
2013-11-27 11:07:00,59.5,43.3,29.77,East,90,0.0,2.2,55,0.00,,,0.00,WUHU216HW,2013-11-27 19:07:00,
2013-11-27 11:12:00,59.9,43.6,29.77,ESE,113,4.4,4.4,55,0.00,,,0.00,WUHU216HW,2013-11-27 19:12:00,
2013-11-27 11:17:00,60.0,43.8,29.77,East,90,1.3,4.4,55,0.00,,,0.00,WUHU216HW,2013-11-27 19:17:00,
2013-11-27 11:22:00,60.4,44.1,29.77,East,90,2.2,2.2,55,0.00,,,0.00,WUHU216HW,2013-11-27 19:22:00,
2013-11-27 11:27:00,60.6,43.6,29.76,East,90,0.0,2.2,54,0.00,,,0.00,WUHU216HW,2013-11-27 19:27:00,
2013-11-27 11:32:00,60.6,43.8,29.76,SE,135,1.5,1.5,54,0.00,,,0.00,WUHU216HW,2013-11-27 19:32:00,
2013-11-27 11:37:00,60.9,44.1,29.76,East,90,0.0,1.5,54,0.00,,,0.00,WUHU216HW,2013-11-27 19:37:00,
2013-11-27 11:43:00,61.1,44.3,29.76,East,90,0.0,3.3,54,0.00,,,0.00,WUHU216HW,2013-11-27 19:43:00,
2013-11-27 11:48:00,61.1,43.8,29.76,ESE,113,0.0,3.3,53,0.00,,,0.00,WUHU216HW,2013-11-27 19:48:00,
2013-11-27 11:53:00,61.5,44.1,29.76,ESE,113,4.6,4.9,53,0.00,,,0.00,WUHU216HW,2013-11-27 19:53:00,
2013-11-27 11:58:00,61.5,44.1,29.76,ENE,68,0.0,4.9,53,0.00,,,0.00,WUHU216HW,2013-11-27 19:58:00,
2013-11-27 12:03:00,61.5,44.1,29.75,ENE,68,0.0,4.6,53,0.00,,,0.00,WUHU216HW,2013-11-27 20:03:00,
2013-11-27 12:08:00,61.5,44.1,29.75,ESE,113,2.6,2.6,53,0.00,,,0.00,WUHU216HW,2013-11-27 20:08:00,
2013-11-27 12:13:00,61.7,43.8,29.75,East,90,0.0,2.6,52,0.00,,,0.00,WUHU216HW,2013-11-27 20:13:00,
2013-11-27 12:18:00,61.7,44.3,29.75,SSE,158,4.6,4.6,53,0.00,,,0.00,WUHU216HW,2013-11-27 20:18:00,
2013-11-27 12:23:00,61.8,44.0,29.75,ENE,68,0.0,4.6,52,0.00,,,0.00,WUHU216HW,2013-11-27 20:23:00,
2013-11-27 12:28:00,61.8,44.5,29.74,ESE,113,4.9,4.9,53,0.00,,,0.00,WUHU216HW,2013-11-27 20:28:00,
2013-11-27 12:33:00,61.8,44.0,29.74,ESE,113,4.9,4.9,52,0.00,,,0.00,WUHU216HW,2013-11-27 20:33:00,
2013-11-27 12:38:00,62.0,44.1,29.74,ESE,113,6.2,6.2,52,0.00,,,0.00,WUHU216HW,2013-11-27 20:38:00,
2013-11-27 12:44:00,62.2,44.1,29.74,ESE,113,0.0,6.2,52,0.00,,,0.00,WUHU216HW,2013-11-27 20:44:00,
2013-11-27 12:49:00,62.0,44.1,29.74,ESE,113,0.0,1.5,52,0.00,,,0.00,WUHU216HW,2013-11-27 20:49:00,
2013-11-27 12:54:00,61.8,44.5,29.74,East,90,3.8,3.8,53,0.00,,,0.00,WUHU216HW,2013-11-27 20:54:00,
2013-11-27 12:59:00,62.0,44.6,29.73,East,90,0.0,3.8,53,0.00,,,0.00,WUHU216HW,2013-11-27 20:59:00,
2013-11-27 13:04:00,62.2,44.8,29.73,SE,135,1.1,1.7,53,0.00,,,0.00,WUHU216HW,2013-11-27 21:04:00,
2013-11-27 13:09:00,62.2,44.8,29.73,East,90,0.0,1.7,53,0.00,,,0.00,WUHU216HW,2013-11-27 21:09:00,
2013-11-27 13:14:00,62.4,44.9,29.72,ENE,68,0.0,1.1,53,0.00,,,0.00,WUHU216HW,2013-11-27 21:14:00,
2013-11-27 13:19:00,62.6,45.1,29.72,East,90,0.0,5.1,53,0.00,,,0.00,WUHU216HW,2013-11-27 21:19:00,
2013-11-27 13:24:00,62.7,45.3,29.72,ESE,113,1.5,5.1,53,0.00,,,0.00,WUHU216HW,2013-11-27 21:24:00,
2013-11-27 13:29:00,62.9,45.3,29.72,ESE,113,0.6,4.6,53,0.00,,,0.00,WUHU216HW,2013-11-27 21:29:00,
2013-11-27 13:34:00,63.1,45.6,29.72,NE,45,4.2,4.6,53,0.00,,,0.00,WUHU216HW,2013-11-27 21:34:00,
2013-11-27 13:39:00,63.1,45.6,29.72,ESE,113,6.9,6.9,53,0.00,,,0.00,WUHU216HW,2013-11-27 21:39:00,
2013-11-27 13:44:00,63.3,45.8,29.72,ESE,113,0.0,6.9,53,0.00,,,0.00,WUHU216HW,2013-11-27 21:44:00,
2013-11-27 13:50:00,63.3,45.8,29.72,ENE,68,0.0,6.9,53,0.00,,,0.00,WUHU216HW,2013-11-27 21:50:00,
2013-11-27 13:55:00,63.3,45.8,29.71,ENE,68,0.0,0.0,53,0.00,,,0.00,WUHU216HW,2013-11-27 21:55:00,
2013-11-27 14:00:00,63.3,45.8,29.72,ESE,113,1.1,4.6,53,0.00,,,0.00,WUHU216HW,2013-11-27 22:00:00,
2013-11-27 14:05:00,63.5,45.9,29.72,ESE,113,3.3,4.6,53,0.00,,,0.00,WUHU216HW,2013-11-27 22:05:00,
2013-11-27 14:10:00,63.5,45.9,29.72,ESE,113,0.0,3.3,53,0.00,,,0.00,WUHU216HW,2013-11-27 22:10:00,
2013-11-27 14:15:00,63.6,46.1,29.72,ENE,68,0.8,2.0,53,0.00,,,0.00,WUHU216HW,2013-11-27 22:15:00,
2013-11-27 14:20:00,63.6,46.1,29.72,East,90,2.4,2.4,53,0.00,,,0.00,WUHU216HW,2013-11-27 22:20:00,
2013-11-27 14:25:00,63.6,46.1,29.72,East,90,0.0,2.4,53,0.00,,,0.00,WUHU216HW,2013-11-27 22:25:00,
2013-11-27 14:30:00,63.6,45.6,29.72,East,90,0.0,0.0,52,0.00,,,0.00,WUHU216HW,2013-11-27 22:30:00,
2013-11-27 14:35:00,63.5,45.9,29.72,East,90,0.0,5.5,53,0.00,,,0.00,WUHU216HW,2013-11-27 22:35:00,
2013-11-27 14:40:00,63.1,45.6,29.72,NE,45,0.0,5.5,53,0.00,,,0.00,WUHU216HW,2013-11-27 22:40:00,
2013-11-27 14:45:00,62.9,45.4,29.72,East,90,0.0,0.0,53,0.00,,,0.00,WUHU216HW,2013-11-27 22:45:00,
2013-11-27 14:51:00,62.7,45.8,29.72,ENE,68,0.0,0.0,54,0.00,,,0.00,WUHU216HW,2013-11-27 22:51:00,
2013-11-27 14:56:00,62.7,45.3,29.72,ESE,113,0.0,0.6,53,0.00,,,0.00,WUHU216HW,2013-11-27 22:56:00,
2013-11-27 15:01:00,62.7,45.3,29.72,SE,135,0.0,0.6,53,0.00,,,0.00,WUHU216HW,2013-11-27 23:01:00,
2013-11-27 15:06:00,62.6,45.1,29.72,ENE,68,0.0,0.4,53,0.00,,,0.00,WUHU216HW,2013-11-27 23:06:00,
2013-11-27 15:11:00,62.4,44.9,29.71,ENE,68,0.0,0.0,53,0.00,,,0.00,WUHU216HW,2013-11-27 23:11:00,
2013-11-27 15:16:00,62.2,44.8,29.71,South,180,0.0,2.0,53,0.00,,,0.00,WUHU216HW,2013-11-27 23:16:00,
2013-11-27 15:21:00,62.0,44.6,29.71,East,90,0.0,2.0,53,0.00,,,0.00,WUHU216HW,2013-11-27 23:21:00,
2013-11-27 15:26:00,61.7,44.3,29.71,East,90,2.0,2.0,53,0.00,,,0.00,WUHU216HW,2013-11-27 23:26:00,
2013-11-27 15:31:00,61.5,44.1,29.71,ESE,113,4.2,4.2,53,0.00,,,0.00,WUHU216HW,2013-11-27 23:31:00,
2013-11-27 15:36:00,61.3,44.0,29.71,East,90,0.0,4.6,53,0.00,,,0.00,WUHU216HW,2013-11-27 23:36:00,
2013-11-27 15:41:00,61.1,44.3,29.71,East,90,2.0,5.3,54,0.00,,,0.00,WUHU216HW,2013-11-27 23:41:00,
2013-11-27 15:46:00,60.9,44.1,29.71,ESE,113,3.1,5.3,54,0.00,,,0.00,WUHU216HW,2013-11-27 23:46:00,
2013-11-27 15:51:00,60.8,44.0,29.71,ENE,68,0.0,3.1,54,0.00,,,0.00,WUHU216HW,2013-11-27 23:51:00,
2013-11-27 15:57:00,60.6,44.3,29.71,East,90,0.0,3.1,55,0.00,,,0.00,WUHU216HW,2013-11-27 23:57:00,
2013-11-27 16:02:00,60.4,44.1,29.71,East,90,0.0,2.4,55,0.00,,,0.00,WUHU216HW,2013-11-28 00:02:00,
2013-11-27 16:07:00,60.4,44.1,29.71,ESE,113,0.0,2.6,55,0.00,,,0.00,WUHU216HW,2013-11-28 00:07:00,
2013-11-27 16:12:00,60.0,43.8,29.71,East,90,0.0,2.6,55,0.00,,,0.00,WUHU216HW,2013-11-28 00:12:00,
2013-11-27 16:17:00,60.0,43.8,29.71,East,90,0.0,1.7,55,0.00,,,0.00,WUHU216HW,2013-11-28 00:17:00,
2013-11-27 16:22:00,59.9,43.6,29.71,ESE,113,0.0,0.0,55,0.00,,,0.00,WUHU216HW,2013-11-28 00:22:00,
2013-11-27 16:27:00,59.7,43.9,29.71,ENE,68,0.0,2.2,56,0.00,,,0.00,WUHU216HW,2013-11-28 00:27:00,
2013-11-27 16:32:00,59.5,43.7,29.71,East,90,0.0,6.4,56,0.00,,,0.00,WUHU216HW,2013-11-28 00:32:00,
2013-11-27 16:37:00,59.1,43.4,29.71,East,90,0.0,6.4,56,0.00,,,0.00,WUHU216HW,2013-11-28 00:37:00,
2013-11-27 16:42:00,58.8,43.5,29.71,East,90,0.0,0.0,57,0.00,,,0.00,WUHU216HW,2013-11-28 00:42:00,
2013-11-27 16:47:00,58.8,43.5,29.71,ESE,113,0.0,5.1,57,0.00,,,0.00,WUHU216HW,2013-11-28 00:47:00,
2013-11-27 16:52:00,58.8,43.5,29.71,NNE,23,0.0,5.1,57,0.00,,,0.00,WUHU216HW,2013-11-28 00:52:00,
2013-11-27 16:58:00,58.8,43.5,29.71,East,90,0.0,0.0,57,0.00,,,0.00,WUHU216HW,2013-11-28 00:58:00,
2013-11-27 17:03:00,58.8,43.5,29.71,East,90,0.0,0.0,57,0.00,,,0.00,WUHU216HW,2013-11-28 01:03:00,
2013-11-27 17:08:00,58.8,44.0,29.71,East,90,0.0,0.8,58,0.00,,,0.00,WUHU216HW,2013-11-28 01:08:00,
2013-11-27 17:13:00,58.8,44.0,29.71,East,90,0.0,0.8,58,0.00,,,0.00,WUHU216HW,2013-11-28 01:13:00,
2013-11-27 17:18:00,58.8,44.0,29.71,East,90,0.0,1.5,58,0.00,,,0.00,WUHU216HW,2013-11-28 01:18:00,
2013-11-27 17:23:00,58.6,43.8,29.72,NE,45,0.0,4.4,58,0.00,,,0.00,WUHU216HW,2013-11-28 01:23:00,
2013-11-27 17:28:00,58.6,43.8,29.71,ENE,68,3.8,4.4,58,0.00,,,0.00,WUHU216HW,2013-11-28 01:28:00,
2013-11-27 17:33:00,58.4,43.7,29.71,ENE,68,0.0,3.8,58,0.00,,,0.00,WUHU216HW,2013-11-28 01:33:00,
2013-11-27 17:38:00,58.2,43.5,29.71,East,90,4.4,4.4,58,0.00,,,0.00,WUHU216HW,2013-11-28 01:38:00,
2013-11-27 17:43:00,58.2,43.5,29.71,SE,135,4.4,4.4,58,0.00,,,0.00,WUHU216HW,2013-11-28 01:43:00,
2013-11-27 17:48:00,58.2,43.5,29.71,ENE,68,0.0,4.4,58,0.00,,,0.00,WUHU216HW,2013-11-28 01:48:00,
2013-11-27 17:53:00,58.2,43.5,29.71,East,90,1.5,2.9,58,0.00,,,0.00,WUHU216HW,2013-11-28 01:53:00,
2013-11-27 17:59:00,58.1,43.3,29.71,East,90,0.0,1.5,58,0.00,,,0.00,WUHU216HW,2013-11-28 01:59:00,
2013-11-27 18:04:00,58.1,43.3,29.71,East,90,0.0,1.5,58,0.00,,,0.00,WUHU216HW,2013-11-28 02:04:00,
2013-11-27 18:09:00,58.1,43.3,29.71,NE,45,0.0,1.5,58,0.00,,,0.00,WUHU216HW,2013-11-28 02:09:00,
2013-11-27 18:14:00,58.1,43.3,29.71,East,90,0.0,6.9,58,0.00,,,0.00,WUHU216HW,2013-11-28 02:14:00,
2013-11-27 18:19:00,57.9,43.2,29.71,East,90,0.0,6.9,58,0.00,,,0.00,WUHU216HW,2013-11-28 02:19:00,
2013-11-27 18:24:00,57.9,43.7,29.71,ESE,113,4.9,4.9,59,0.00,,,0.00,WUHU216HW,2013-11-28 02:24:00,
2013-11-27 18:29:00,57.9,43.7,29.71,ESE,113,0.0,4.9,59,0.00,,,0.00,WUHU216HW,2013-11-28 02:29:00,
2013-11-27 18:34:00,57.7,43.5,29.72,ESE,113,0.0,0.0,59,0.00,,,0.00,WUHU216HW,2013-11-28 02:34:00,
2013-11-27 18:39:00,57.7,43.5,29.71,East,90,0.0,0.0,59,0.00,,,0.00,WUHU216HW,2013-11-28 02:39:00,
2013-11-27 18:44:00,57.7,43.5,29.71,ESE,113,0.0,4.4,59,0.00,,,0.00,WUHU216HW,2013-11-28 02:44:00,
2013-11-27 18:49:00,57.7,43.5,29.71,East,90,0.0,4.4,59,0.00,,,0.00,WUHU216HW,2013-11-28 02:49:00,
2013-11-27 18:54:00,57.5,43.3,29.71,East,90,0.4,2.0,59,0.00,,,0.00,WUHU216HW,2013-11-28 02:54:00,
2013-11-27 19:00:00,57.5,43.3,29.71,ENE,68,0.0,2.0,59,0.00,,,0.00,WUHU216HW,2013-11-28 03:00:00,
2013-11-27 19:05:00,57.3,43.2,29.71,East,90,0.0,2.9,59,0.00,,,0.00,WUHU216HW,2013-11-28 03:05:00,
2013-11-27 19:10:00,57.3,43.2,29.71,East,90,0.0,3.3,59,0.00,,,0.00,WUHU216HW,2013-11-28 03:10:00,
2013-11-27 19:15:00,57.3,43.2,29.71,ENE,68,0.0,9.1,59,0.00,,,0.00,WUHU216HW,2013-11-28 03:15:00,
2013-11-27 19:20:00,57.3,43.2,29.71,East,90,0.6,9.1,59,0.00,,,0.00,WUHU216HW,2013-11-28 03:20:00,
2013-11-27 19:25:00,57.3,43.2,29.71,ESE,113,0.4,2.9,59,0.00,,,0.00,WUHU216HW,2013-11-28 03:25:00,
2013-11-27 19:30:00,57.3,43.2,29.71,ENE,68,0.0,3.5,59,0.00,,,0.00,WUHU216HW,2013-11-28 03:30:00,
2013-11-27 19:35:00,57.2,43.0,29.71,NNE,23,3.5,3.5,59,0.00,,,0.00,WUHU216HW,2013-11-28 03:35:00,
2013-11-27 19:40:00,57.2,42.5,29.72,NE,45,0.0,3.5,58,0.00,,,0.00,WUHU216HW,2013-11-28 03:40:00,
2013-11-27 19:45:00,57.2,42.5,29.71,ENE,68,5.3,5.3,58,0.00,,,0.00,WUHU216HW,2013-11-28 03:45:00,
2013-11-27 19:50:00,57.2,42.5,29.72,East,90,0.0,5.3,58,0.00,,,0.00,WUHU216HW,2013-11-28 03:50:00,
2013-11-27 19:55:00,57.0,42.4,29.72,East,90,1.3,3.5,58,0.00,,,0.00,WUHU216HW,2013-11-28 03:55:00,
2013-11-27 20:00:00,57.0,42.4,29.72,NE,45,0.0,1.3,58,0.00,,,0.00,WUHU216HW,2013-11-28 04:00:00,
2013-11-27 20:06:00,57.0,42.4,29.71,East,90,5.1,5.1,58,0.00,,,0.00,WUHU216HW,2013-11-28 04:06:00,
2013-11-27 20:11:00,57.0,42.4,29.71,ESE,113,0.0,5.1,58,0.00,,,0.00,WUHU216HW,2013-11-28 04:11:00,
2013-11-27 20:16:00,57.0,42.4,29.72,ESE,113,0.0,5.1,58,0.00,,,0.00,WUHU216HW,2013-11-28 04:16:00,
2013-11-27 20:21:00,57.0,42.4,29.71,East,90,0.0,2.4,58,0.00,,,0.00,WUHU216HW,2013-11-28 04:21:00,
2013-11-27 20:26:00,57.0,42.4,29.71,East,90,0.0,6.2,58,0.00,,,0.00,WUHU216HW,2013-11-28 04:26:00,
2013-11-27 20:31:00,57.0,41.9,29.72,East,90,0.6,6.2,57,0.00,,,0.00,WUHU216HW,2013-11-28 04:31:00,
2013-11-27 20:36:00,57.0,41.9,29.72,East,90,3.5,3.5,57,0.00,,,0.00,WUHU216HW,2013-11-28 04:36:00,
2013-11-27 20:41:00,57.0,41.9,29.71,ENE,68,0.0,3.5,57,0.00,,,0.00,WUHU216HW,2013-11-28 04:41:00,
2013-11-27 20:46:00,57.0,41.9,29.72,NE,45,0.0,4.6,57,0.00,,,0.00,WUHU216HW,2013-11-28 04:46:00,
2013-11-27 20:51:00,57.0,41.4,29.72,ENE,68,0.0,4.6,56,0.00,,,0.00,WUHU216HW,2013-11-28 04:51:00,
2013-11-27 20:56:00,57.0,41.4,29.72,ESE,113,0.0,3.8,56,0.00,,,0.00,WUHU216HW,2013-11-28 04:56:00,
2013-11-27 21:01:00,57.0,41.4,29.71,ESE,113,0.0,3.8,56,0.00,,,0.00,WUHU216HW,2013-11-28 05:01:00,
2013-11-27 21:02:00,57.0,41.4,29.71,ESE,113,0.0,3.8,56,0.00,,,0.00,WUHU216HW,2013-11-28 05:02:00,
2013-11-27 21:03:00,57.0,41.4,29.72,East,90,0.4,3.8,56,0.00,,,0.00,WUHU216HW,2013-11-28 05:03:00,
2013-11-27 21:09:00,57.0,41.4,29.71,East,90,1.5,1.5,56,0.00,,,0.00,WUHU216HW,2013-11-28 05:09:00,
2013-11-27 21:14:00,57.0,41.4,29.72,ESE,113,0.0,1.5,56,0.00,,,0.00,WUHU216HW,2013-11-28 05:14:00,
2013-11-27 21:19:00,57.2,41.6,29.72,NE,45,0.0,1.1,56,0.00,,,0.00,WUHU216HW,2013-11-28 05:19:00,
2013-11-27 21:24:00,57.2,41.6,29.71,ESE,113,5.8,6.0,56,0.00,,,0.00,WUHU216HW,2013-11-28 05:24:00,
2013-11-27 21:29:00,57.0,41.4,29.72,ENE,68,0.0,6.0,56,0.00,,,0.00,WUHU216HW,2013-11-28 05:29:00,
2013-11-27 21:34:00,57.0,41.4,29.72,ESE,113,3.3,3.5,56,0.00,,,0.00,WUHU216HW,2013-11-28 05:34:00,
2013-11-27 21:39:00,57.0,41.4,29.72,ESE,113,0.0,3.3,56,0.00,,,0.00,WUHU216HW,2013-11-28 05:39:00,
2013-11-27 21:44:00,57.0,41.4,29.72,ENE,68,0.0,2.0,56,0.00,,,0.00,WUHU216HW,2013-11-28 05:44:00,
2013-11-27 21:49:00,57.0,41.0,29.72,East,90,0.0,2.0,55,0.00,,,0.00,WUHU216HW,2013-11-28 05:49:00,
2013-11-27 21:54:00,57.0,41.0,29.72,East,90,0.0,1.7,55,0.00,,,0.00,WUHU216HW,2013-11-28 05:54:00,
2013-11-27 21:59:00,57.0,41.0,29.72,East,90,0.0,4.4,55,0.00,,,0.00,WUHU216HW,2013-11-28 05:59:00,
2013-11-27 22:04:00,57.0,41.0,29.72,East,90,0.0,4.4,55,0.00,,,0.00,WUHU216HW,2013-11-28 06:04:00,
2013-11-27 22:10:00,57.0,41.0,29.72,ESE,113,3.3,6.9,55,0.00,,,0.00,WUHU216HW,2013-11-28 06:10:00,
2013-11-27 22:15:00,57.0,41.0,29.72,NNW,338,0.0,6.9,55,0.00,,,0.00,WUHU216HW,2013-11-28 06:15:00,
2013-11-27 22:20:00,57.0,41.0,29.72,East,90,0.0,3.5,55,0.00,,,0.00,WUHU216HW,2013-11-28 06:20:00,
2013-11-27 22:25:00,57.0,41.0,29.72,ESE,113,2.6,3.5,55,0.00,,,0.00,WUHU216HW,2013-11-28 06:25:00,
2013-11-27 22:30:00,56.8,40.8,29.72,ENE,68,0.0,4.0,55,0.00,,,0.00,WUHU216HW,2013-11-28 06:30:00,
2013-11-27 22:35:00,56.8,40.8,29.72,ESE,113,0.0,4.0,55,0.00,,,0.00,WUHU216HW,2013-11-28 06:35:00,
2013-11-27 22:40:00,56.8,40.8,29.72,East,90,3.1,5.8,55,0.00,,,0.00,WUHU216HW,2013-11-28 06:40:00,
2013-11-27 22:45:00,56.8,40.3,29.72,ENE,68,0.0,5.8,54,0.00,,,0.00,WUHU216HW,2013-11-28 06:45:00,
2013-11-27 22:50:00,56.8,40.3,29.72,East,90,0.0,3.1,54,0.00,,,0.00,WUHU216HW,2013-11-28 06:50:00,
2013-11-27 22:55:00,56.8,40.3,29.72,ESE,113,2.2,2.2,54,0.00,,,0.00,WUHU216HW,2013-11-28 06:55:00,
2013-11-27 23:00:00,56.8,40.3,29.72,SE,135,2.2,2.2,54,0.00,,,0.00,WUHU216HW,2013-11-28 07:00:00,
2013-11-27 23:05:00,56.8,40.3,29.72,ENE,68,0.0,2.2,54,0.00,,,0.00,WUHU216HW,2013-11-28 07:05:00,
2013-11-27 23:11:00,56.8,40.3,29.72,East,90,2.0,2.2,54,0.00,,,0.00,WUHU216HW,2013-11-28 07:11:00,
2013-11-27 23:16:00,56.8,40.3,29.72,ENE,68,1.3,6.0,54,0.00,,,0.00,WUHU216HW,2013-11-28 07:16:00,
2013-11-27 23:21:00,56.8,40.3,29.72,East,90,0.0,6.0,54,0.00,,,0.00,WUHU216HW,2013-11-28 07:21:00,
2013-11-27 23:26:00,56.6,40.1,29.72,East,90,0.0,3.3,54,0.00,,,0.00,WUHU216HW,2013-11-28 07:26:00,
2013-11-27 23:31:00,56.4,39.9,29.72,ESE,113,5.1,5.1,54,0.00,,,0.00,WUHU216HW,2013-11-28 07:31:00,
2013-11-27 23:36:00,56.4,39.9,29.72,East,90,0.0,5.1,54,0.00,,,0.00,WUHU216HW,2013-11-28 07:36:00,
2013-11-27 23:41:00,56.4,39.9,29.72,East,90,0.0,5.1,54,0.00,,,0.00,WUHU216HW,2013-11-28 07:41:00,
2013-11-27 23:46:00,56.4,39.9,29.72,East,90,0.0,0.0,54,0.00,,,0.00,WUHU216HW,2013-11-28 07:46:00,
2013-11-27 23:51:00,56.3,40.2,29.72,ESE,113,0.0,4.6,55,0.00,,,0.00,WUHU216HW,2013-11-28 07:51:00,
2013-11-27 23:56:00,56.3,40.2,29.72,East,90,0.0,4.6,55,0.00,,,0.00,WUHU216HW,2013-11-28 07:56:00,